Probability
0 0 0 0 0 0 0 0 0 0 0 0 0 0 0 0 0 0 0 0 0 0 0 0 0 0 0 0 0 0 0 0 0 0 0 0 0 0 0 0 0 0 0 0
0 0 0 0 0 0 0 0 0 0 0 0 0 0 0 0 0 0 0 0 0 0 0 0 0 0 0 0 0 0 0 3 0 0 0 0 0 0 0 0 0 0 0 0
0 0 0 0 0 0 0 0 0 0 0 0 0 0 0 0 0 0 0 0 0 0 0 0 0 0 0 0 0 0 0 3 3 0 0 0 0 0 0 0 0 0 0 0
0 0 0 0 0 0 0 0 0 0 0 0 0 0 0 0 0 0 0 0 0 0 0 0 0 0 0 0 0 0 0 3 3 3 0 0 0 0 0 0 0 0 0 0
0 0 0 0 0 0 0 0 0 0 0 0 0 0 0 0 0 0 0 0 0 0 0 0 0 0 0 0 0 0 0 3 3 3 3 0 0 0 0 0 0 0 0 0
0 0 0 0 0 0 0 0 0 0 0 0 0 0 0 0 0 0 0 0 0 0 0 0 0 0 0 0 0 0 0 0 3 3 3 3 0 0 0 0 0 0 0 0
0 0 0 0 0 0 0 0 0 0 0 0 0 0 0 0 0 0 0 0 0 0 0 0 0 0 0 0 0 0 0 0 3 3 3 3 3 0 0 0 0 0 0 0
0 0 0 0 0 0 0 0 0 0 0 0 0 0 0 0 0 0 0 0 0 0 0 0 0 0 0 0 0 0 0 0 0 3 3 3 3 0 0 0 0 0 0 0
0 0 0 0 0 0 0 0 0 0 0 0 0 0 0 0 0 0 0 0 0 0 0 0 0 0 0 0 0 0 0 0 0 0 3 3 3 0 0 0 0 0 0 0
0 0 0 0 0 0 0 0 0 0 0 0 0 0 0 0 0 0 0 0 0 0 0 0 0 0 0 0 0 0 0 0 0 0 0 3 3 3 0 0 0 0 0 0
0 0 0 0 0 0 0 0 0 0 0 0 0 0 0 0 0 0 0 0 0 0 0 0 0 0 0 0 0 0 0 0 0 0 0 0 0 3 0 0 0 0 0 0
0 0 0 0 0 0 0 0 0 0 0 0 0 0 0 0 0 0 0 0 0 0 0 0 0 0 0 0 0 0 0 0 0 0 0 0 0 0 0 0 0 0 0 0
0 0 0 0 0 0 0 0 0 0 0 0 0 0 0 0 0 0 0 0 0 0 0 0 0 0 0 0 0 0 0 0 0 0 0 0 0 0 0 0 0 0 0 0
0 0 0 0 0 0 0 0 0 0 0 0 0 0 0 0 0 0 0 0 0 0 0 0 0 0 0 0 0 0 0 0 0 0 0 0 0 0 0 0 0 0 0 0
0 0 0 0 0 0 0 0 0 0 0 0 0 0 0 0 0 0 0 0 0 0 0 0 0 0 0 0 0 0 0 0 0 0 0 0 0 0 0 0 0 0 0 0
0 0 0 0 0 0 0 0 0 0 0 0 0 0 0 0 0 0 0 0 0 0 0 0 0 0 0 0 0 0 0 0 0 0 0 0 0 0 0 0 0 0 0 0
0 0 0 0 0 0 0 0 0 0 0 0 0 0 0 0 0 0 0 0 0 0 0 0 0 0 0 0 0 0 0 0 0 0 0 0 0 0 0 0 0 0 0 0
0 0 0 0 0 0 0 0 0 0 0 0 0 0 0 0 0 0 0 0 0 0 0 0 0 0 0 0 0 0 0 0 0 0 0 0 0 0 0 0 0 0 0 0
0 0 0 0 0 0 0 0 0 0 0 0 0 0 0 0 0 0 0 0 0 0 0 0 0 0 0 0 0 0 0 0 0 0 0 0 0 0 0 0 0 0 0 0
0 0 0 0 0 0 0 0 0 0 0 0 0 0 0 0 0 0 0 0 0 0 0 0 0 0 0 0 0 0 0 0 0 0 0 0 0 0 0 0 0 0 0 0
0 0 0 0 0 0 0 0 0 0 0 0 0 0 0 0 0 0 0 0 0 0 0 0 0 0 0 0 0 0 0 0 0 0 0 0 0 0 0 0 0 0 0 0
0 0 0 0 0 0 0 0 0 0 0 0 0 0 0 0 0 0 0 0 0 0 0 0 0 0 0 0 0 0 0 0 0 0 0 0 0 0 0 0 0 0 0 0
0 0 0 0 0 0 0 0 0 0 0 0 0 0 0 0 0 0 0 0 0 0 0 0 0 0 0 0 0 0 0 0 0 0 0 0 0 0 0 0 0 0 0 0
0 0 0 0 0 0 0 0 0 0 0 0 0 0 0 0 0 0 0 0 0 0 0 0 0 0 0 0 0 0 0 0 0 0 0 0 0 0 0 0 0 0 0 0
0 0 0 0 0 0 0 0 0 0 0 0 0 0 0 0 0 0 0 0 0 0 0 0 0 0 0 0 0 0 0 0 0 0 0 0 0 0 0 0 0 0 0 0
0 0 0 0 0 0 0 0 0 0 0 0 0 0 0 0 0 0 0 0 0 0 0 0 0 0 0 0 0 0 0 0 0 0 0 0 0 0 0 0 0 0 0 0
Height
5694 5693 5692 5692 5691 5691 5690 5689 5689 5690 5689 5689 5689 5689 5691 5692 5693 5694 5695 5697 5698 5699 5701 5702 5703 5704 5706 5707 5708 5710 5712 5713 5715 5718 5720 5722 5724 5726 5728 5729 5730 5732 5733 5734
5686 5685 5685 5683 5682 5680 5680 5680 5680 5680 5679 5678 5678 5679 5681 5681 5683 5685 5686 5687 5688 5690 5691 5692 5693 5694 5695 5697 5698 5700 5702 5704 5706 5708 5710 5712 5714 5716 5718 5719 5720 5722 5723 5724
5678 5678 5676 5674 5673 5672 5671 5671 5671 5671 5670 5668 5668 5669 5671 5672 5673 5675 5676 5677 5678 5680 5681 5682 5683 5684 5685 5687 5688 5690 5692 5694 5696 5698 5700 5701 5703 5705 5707 5708 5709 5711 5712 5713
5670 5669 5668 5666 5665 5664 5663 5663 5662 5661 5659 5659 5659 5658 5662 5662 5663 5664 5666 5667 5668 5670 5671 5672 5673 5674 5675 5677 5678 5680 5681 5683 5685 5687 5688 5690 5692 5694 5695 5697 5698 5699 5701 5703
5662 5661 5659 5658 5658 5656 5655 5654 5653 5651 5650 5649 5648 5647 5651 5652 5653 5654 5655 5656 5657 5659 5660 5661 5662 5663 5665 5666 5667 5669 5670 5672 5674 5675 5677 5679 5680 5682 5684 5685 5687 5688 5690 5692
5654 5653 5651 5650 5649 5648 5646 5645 5643 5641 5640 5639 5640 5637 5639 5641 5643 5644 5645 5645 5646 5647 5648 5649 5651 5652 5653 5655 5656 5658 5659 5660 5662 5664 5665 5667 5668 5670 5672 5673 5675 5677 5678 5680
5646 5645 5643 5642 5641 5639 5638 5636 5634 5631 5629 5629 5630 5627 5629 5631 5632 5633 5634 5634 5635 5636 5637 5638 5639 5641 5642 5643 5644 5646 5647 5649 5650 5652 5653 5655 5656 5658 5660 5661 5663 5664 5665 5667
5637 5637 5635 5633 5632 5630 5628 5627 5626 5624 5621 5621 5620 5618 5621 5621 5621 5622 5622 5623 5624 5624 5625 5627 5628 5629 5630 5631 5632 5634 5635 5636 5637 5639 5641 5642 5643 5645 5647 5648 5650 5651 5652 5653
5629 5628 5627 5625 5623 5622 5620 5618 5617 5615 5612 5611 5610 5610 5611 5611 5611 5612 5612 5613 5613 5613 5614 5615 5616 5617 5618 5619 5620 5622 5623 5624 5625 5626 5628 5629 5630 5632 5633 5635 5636 5637 5638 5640
5621 5620 5619 5617 5615 5613 5612 5610 5608 5605 5603 5601 5601 5601 5603 5603 5603 5603 5603 5602 5602 5603 5604 5604 5605 5606 5607 5608 5608 5609 5610 5612 5613 5614 5615 5616 5617 5618 5619 5621 5622 5623 5625 5626
5613 5612 5611 5609 5607 5605 5603 5602 5599 5597 5595 5594 5592 5596 5594 5594 5594 5593 5593 5592 5592 5593 5593 5593 5594 5595 5595 5596 5596 5597 5598 5599 5600 5601 5602 5603 5604 5605 5606 5607 5608 5609 5611 5612
5605 5604 5602 5601 5599 5596 5594 5592 5591 5590 5588 5586 5585 5589 5585 5585 5584 5583 5583 5582 5582 5582 5582 5582 5583 5583 5584 5584 5585 5585 5586 5586 5587 5588 5589 5590 5590 5591 5592 5593 5595 5596 5597 5598
5597 5595 5594 5592 5592 5589 5586 5584 5582 5580 5579 5577 5576 5581 5577 5575 5574 5573 5572 5572 5571 5572 5572 5571 5571 5572 5572 5572 5573 5573 5574 5574 5575 5575 5576 5576 5577 5577 5578 5579 5580 5582 5583 5583
5588 5586 5585 5584 5581 5579 5577 5576 5574 5572 5570 5569 5569 5570 5569 5566 5564 5563 5562 5561 5561 5561 5560 5560 5560 5560 5560 5560 5561 5561 5561 5562 5562 5562 5563 5563 5563 5564 5565 5565 5566 5567 5568 5569
5579 5578 5576 5574 5572 5569 5568 5567 5565 5563 5561 5560 5561 5560 5559 5557 5554 5553 5551 5551 5550 5550 5549 5549 5548 5548 5548 5548 5549 5549 5549 5549 5550 5550 5550 5550 5550 5550 5551 5551 5552 5553 5553 5554
5570 5568 5567 5565 5563 5560 5559 5558 5556 5554 5552 5551 5550 5550 5549 5546 5544 5542 5541 5540 5539 5539 5538 5537 5537 5537 5537 5537 5537 5537 5537 5537 5537 5537 5537 5538 5538 5538 5537 5538 5538 5538 5539 5540
5561 5559 5557 5556 5554 5551 5550 5551 5548 5546 5544 5542 5540 5541 5538 5536 5534 5532 5531 5529 5529 5528 5527 5526 5526 5526 5525 5525 5525 5525 5525 5525 5525 5525 5525 5525 5525 5525 5524 5524 5524 5524 5524 5525
5553 5550 5547 5546 5545 5542 5545 5542 5539 5537 5535 5533 5531 5530 5528 5526 5524 5522 5520 5519 5518 5517 5517 5516 5515 5515 5514 5514 5513 5513 5513 5513 5513 5512 5512 5511 5511 5511 5511 5510 5510 5510 5510 5510
5544 5541 5539 5536 5534 5533 5534 5533 5530 5527 5526 5524 5522 5520 5518 5516 5514 5513 5511 5509 5508 5507 5506 5505 5505 5504 5504 5503 5502 5502 5501 5501 5500 5500 5499 5499 5498 5497 5497 5496 5496 5495 5495 5496
5535 5532 5531 5527 5524 5523 5526 5524 5520 5518 5517 5516 5513 5510 5509 5507 5506 5505 5502 5500 5498 5497 5496 5495 5494 5493 5493 5492 5491 5491 5490 5489 5488 5488 5487 5486 5484 5484 5483 5482 5481 5481 5481 5481
5527 5524 5522 5519 5516 5515 5516 5513 5511 5510 5509 5506 5503 5501 5499 5497 5496 5495 5492 5490 5488 5486 5485 5484 5483 5482 5482 5481 5480 5480 5479 5478 5476 5475 5474 5473 5471 5470 5469 5468 5467 5467 5467 5467
5517 5515 5513 5510 5508 5510 5506 5504 5503 5501 5498 5496 5493 5491 5490 5488 5486 5484 5482 5480 5478 5476 5475 5474 5472 5472 5471 5470 5469 5468 5467 5466 5464 5463 5462 5460 5458 5457 5456 5455 5454 5453 5452 5452
5509 5507 5504 5503 5503 5500 5497 5494 5492 5491 5489 5486 5484 5482 5480 5478 5476 5474 5472 5470 5468 5466 5465 5463 5462 5461 5460 5460 5458 5457 5456 5455 5453 5451 5450 5448 5447 5445 5443 5442 5441 5440 5439 5438
5500 5498 5495 5493 5492 5490 5487 5485 5483 5481 5479 5477 5474 5472 5470 5468 5466 5464 5462 5460 5458 5456 5455 5454 5453 5452 5451 5449 5448 5447 5445 5444 5442 5440 5438 5437 5435 5433 5432 5430 5429 5427 5426 5425
5491 5488 5486 5484 5483 5481 5478 5476 5474 5471 5469 5467 5464 5462 5460 5458 5456 5454 5452 5450 5448 5447 5445 5444 5443 5442 5441 5439 5438 5436 5435 5433 5431 5429 5428 5426 5424 5422 5421 5419 5417 5415 5414 5412
5482 5479 5477 5475 5474 5472 5470 5467 5464 5462 5459 5457 5454 5452 5450 5448 5446 5444 5442 5440 5438 5437 5436 5434 5433 5432 5431 5429 5428 5426 5424 5422 5420 5419 5417 5415 5413 5411 5410 5408 5406 5403 5402 5400
Wind_Speed
29 29 29 30 31 32 33 33 34 35 36 36 36 36 36 36 36 36 36 36 36 37 37 38 38 39 38 38 39 39 38 39 40 41 42 43 43 43 42 42 42 42 42 42
28 29 29 30 30 31 33 33 33 34 35 36 37 36 36 36 37 37 37 37 37 37 38 39 38 39 39 39 39 39 39 40 40 41 42 43 44 44 44 43 44 43 43 44
28 29 29 29 30 31 31 33 33 34 34 36 37 37 36 36 37 37 38 38 38 38 39 39 38 38 39 40 40 40 41 41 41 42 43 44 45 45 45 45 45 45 45 45
28 28 28 29 29 30 31 31 33 34 35 35 36 39 37 36 37 38 38 38 38 39 39 39 39 39 40 41 41 41 42 43 43 43 44 45 45 46 46 46 46 46 46 46
28 27 28 28 28 29 30 31 32 34 35 37 37 39 39 37 37 37 38 38 39 39 39 39 39 40 40 41 41 42 42 43 44 44 45 45 46 46 46 46 47 47 47 47
28 28 28 28 29 30 30 31 31 32 34 36 35 38 39 38 38 38 38 38 39 39 39 39 39 40 41 41 42 42 43 43 44 45 46 47 48 47 48 47 47 47 48 48
27 28 28 29 29 29 29 30 31 32 33 35 35 37 38 37 37 37 37 37 38 38 38 39 40 40 41 41 42 43 44 45 45 46 46 47 48 48 49 49 48 49 49 48
26 26 27 28 28 29 29 30 31 33 34 34 34 35 35 35 35 35 35 35 36 37 38 39 40 40 41 42 43 43 44 45 46 47 47 47 48 49 49 50 50 51 50 50
26 27 26 27 27 28 29 29 31 33 34 34 35 35 34 33 33 32 33 34 35 36 37 37 38 40 40 42 43 44 44 45 46 46 47 48 48 49 50 50 51 51 52 52
27 28 26 26 27 28 29 29 29 30 32 33 34 34 34 32 31 31 31 32 34 35 36 37 38 38 40 41 42 43 44 45 45 46 46 47 48 49 49 50 51 51 52 52
28 28 27 27 27 28 29 30 30 31 32 33 34 33 32 32 32 31 32 32 33 34 35 36 37 38 39 40 41 42 44 45 45 45 45 46 47 48 49 50 50 51 51 52
28 28 28 28 28 29 29 29 29 30 31 32 33 32 31 32 32 33 33 34 34 34 35 36 37 38 39 39 40 41 42 43 44 45 46 46 47 48 49 50 51 51 51 52
29 29 30 30 30 30 30 29 29 30 31 32 33 32 31 32 32 33 34 34 34 35 36 37 38 39 40 40 41 41 42 42 44 45 46 46 47 48 48 49 50 51 52 52
29 30 31 31 31 31 31 30 30 31 31 32 32 32 31 32 33 34 34 34 34 34 36 37 38 39 40 41 41 42 41 42 43 44 45 46 46 47 48 49 50 51 51 52
30 31 31 31 31 30 30 30 30 31 32 33 32 32 32 33 34 34 34 35 35 35 36 37 37 39 39 40 40 42 43 43 43 44 45 45 46 46 47 48 49 50 51 52
31 31 31 31 31 30 30 30 30 31 32 33 33 33 33 34 34 34 34 34 35 35 36 36 37 37 37 38 39 40 41 42 43 43 44 44 44 46 46 47 48 49 50 51
30 30 31 31 31 31 30 29 30 31 32 32 33 33 33 33 33 33 34 34 34 34 34 35 35 36 37 37 38 39 40 40 41 42 43 44 44 45 45 46 47 48 49 50
31 31 31 31 31 31 30 29 29 31 31 32 32 32 33 33 32 33 33 34 34 34 35 34 35 35 36 37 37 38 39 40 40 41 43 44 45 45 45 46 47 48 49 50
31 31 31 31 31 32 29 29 29 29 30 30 31 31 32 32 32 32 33 33 34 34 34 34 35 35 36 36 37 37 38 39 40 41 42 43 45 45 46 47 47 48 49 49
30 30 31 31 32 32 31 30 29 30 30 29 29 30 30 30 30 30 32 33 34 34 34 34 35 35 36 36 36 37 37 38 39 40 41 41 42 43 44 45 46 47 48 49
30 30 30 30 31 32 31 31 31 31 30 30 30 30 30 29 30 30 31 32 33 33 34 34 35 35 36 36 36 37 38 38 39 39 40 41 41 42 43 43 44 45 46 47
30 30 30 30 30 30 31 31 32 32 31 31 31 30 30 30 31 31 31 32 32 32 33 33 33 33 34 34 34 34 35 36 37 38 39 39 40 40 41 41 41 43 44 45
29 30 31 30 30 29 30 31 31 31 31 31 31 31 31 31 31 31 32 32 32 32 31 31 31 31 32 33 33 34 34 35 35 35 36 37 38 38 38 39 39 40 41 42
28 29 30 30 30 29 29 30 30 31 31 32 32 32 32 31 31 31 31 31 30 30 30 30 30 31 31 32 33 33 34 34 34 34 34 35 35 36 37 37 38 39 40 41
29 30 30 31 30 30 30 31 31 31 31 32 32 32 32 32 31 31 31 30 30 30 29 30 30 30 30 31 32 33 33 34 33 33 33 34 34 35 35 36 36 37 38 39
29 30 31 30 30 30 30 31 31 31 31 32 32 32 32 32 32 31 31 31 31 30 30 30 29 29 29 30 31 31 32 33 33 33 34 34 34 35 35 35 35 36 37 37
Wind_Direction
275 273 273 274 273 272 270 267 265 264 263 263 262 262 260 258 257 257 256 256 255 255 255 256 256 254 254 253 253 252 252 252 251 251 251 251 252 254 255 254 255 255 254 254
275 274 275 275 274 272 270 267 266 266 266 266 264 261 260 258 257 256 257 257 256 255 255 255 256 255 254 253 253 251 252 252 252 252 252 253 253 254 253 254 254 254 254 253
277 278 277 276 274 272 271 269 268 268 268 267 266 262 260 258 257 257 256 256 256 256 255 254 255 255 254 253 253 252 252 252 252 253 252 252 253 253 253 254 254 253 254 254
279 279 277 276 276 276 273 273 271 269 268 269 267 265 260 260 259 259 258 256 256 255 255 254 254 255 254 253 253 253 253 253 253 253 253 252 252 252 254 254 254 254 255 254
280 279 277 276 277 278 277 275 274 271 270 270 269 268 263 261 260 259 259 258 257 256 255 255 254 255 255 253 253 253 253 254 253 253 253 253 253 252 253 254 254 254 255 255
279 279 277 276 276 278 278 277 275 274 273 271 270 269 266 264 263 262 261 260 259 257 256 255 254 255 255 254 254 253 253 253 253 253 254 254 255 254 254 253 253 254 255 255
280 280 278 278 277 277 278 277 276 275 273 272 273 270 269 268 265 265 264 262 260 259 258 257 256 255 255 255 256 255 254 254 253 253 253 254 254 255 254 254 253 254 254 254
284 282 281 281 281 280 278 277 275 276 276 274 272 271 270 270 267 266 264 263 262 261 259 258 257 256 256 256 256 256 256 256 255 255 254 254 253 254 254 254 254 254 255 255
287 286 284 283 284 282 279 277 276 276 277 277 274 273 272 271 270 268 266 265 263 261 259 259 258 257 257 257 257 256 257 257 257 257 255 254 254 254 254 255 255 255 255 256
287 285 284 285 284 282 281 280 277 275 276 278 277 276 275 274 273 271 269 267 265 263 261 261 260 260 259 258 258 258 258 257 257 258 257 256 256 255 255 254 254 255 255 256
287 286 284 284 284 284 281 278 277 277 276 277 279 278 279 277 276 274 272 269 267 265 263 262 261 260 260 259 259 259 259 259 258 258 258 258 257 257 256 255 255 256 256 256
285 284 284 284 284 283 282 279 277 276 276 276 278 280 281 279 277 275 273 270 268 266 266 264 263 262 261 261 261 261 261 260 260 259 259 259 259 257 256 256 255 256 257 258
285 283 284 283 283 283 281 279 278 276 276 276 277 279 280 279 277 274 273 272 270 268 266 265 264 263 263 263 263 263 262 262 261 261 260 261 260 259 258 256 256 256 257 258
286 282 283 284 285 284 281 278 277 276 275 276 277 278 278 278 276 275 273 272 271 269 268 267 266 265 265 264 264 264 264 264 263 262 262 262 262 261 259 258 257 257 257 258
286 284 283 282 282 281 280 278 277 277 277 278 278 279 279 278 277 275 273 272 272 271 270 269 268 267 266 266 265 264 264 264 263 263 262 263 263 264 263 262 260 259 259 260
287 285 283 281 280 279 279 278 277 277 279 280 279 279 280 279 278 276 275 274 273 273 272 271 270 269 267 267 266 265 265 265 265 264 264 264 265 265 265 264 264 262 261 261
288 287 284 282 280 279 279 279 278 278 279 280 281 281 280 279 277 276 275 274 273 272 272 272 270 269 268 267 267 267 266 266 267 266 265 265 266 266 266 266 264 263 263 262
287 286 285 284 282 281 283 282 281 280 280 281 282 282 281 279 278 277 276 274 273 273 271 270 270 270 270 269 269 268 268 268 268 268 268 268 267 267 267 267 266 266 265 263
288 286 285 284 283 284 284 285 285 284 283 283 283 282 282 280 280 278 277 276 275 274 273 271 270 270 271 270 269 269 269 270 270 269 269 269 269 268 268 268 268 266 265 264
287 286 285 283 283 285 286 286 286 286 285 284 284 284 284 283 282 281 279 278 277 276 275 273 271 270 271 271 271 272 271 271 271 271 270 270 270 270 269 269 269 267 267 266
286 286 286 285 283 284 285 285 286 286 288 287 285 285 285 284 285 284 283 280 279 278 277 275 272 271 271 272 272 273 273 273 273 273 273 273 272 271 271 271 269 268 268 268
285 285 285 285 284 285 285 285 285 286 287 287 287 286 285 285 286 285 284 281 280 278 278 277 275 273 272 273 273 274 275 276 275 275 274 274 274 273 273 272 271 270 269 269
285 285 284 284 285 286 286 285 285 286 287 287 287 287 287 286 286 285 284 282 281 280 278 278 277 275 275 274 274 275 276 277 277 276 276 275 274 274 274 273 272 272 272 271
284 283 283 283 285 285 285 285 286 286 287 287 287 287 286 285 285 285 283 281 280 280 278 278 278 277 277 277 276 276 278 279 279 278 278 277 276 275 274 274 274 274 274 273
285 282 283 284 285 285 285 286 286 287 288 288 287 286 286 285 285 284 282 281 279 279 278 278 277 278 279 280 279 279 280 280 280 280 279 278 277 276 276 276 276 276 276 275
283 283 283 285 286 287 287 286 286 287 288 288 287 285 285 284 284 283 281 281 280 279 279 279 278 279 280 281 281 280 280 281 281 281 280 280 279 277 277 277 277 277 278 277